Location: Newark
(37.9111°N, 95.1633°W)
Time: 16:41:16
(UTC+00:00)

ISS - Visible Passes

Search period start: 16 July 2019 00:00
Search period end: 26 July 2019 00:00
Orbit: 409 x 418 km, 51.6° (Epoch: 17 July)

Date Brightness Start Highest point End Pass type
(mag) Time Alt. Az. Time Alt. Az. Time Alt. Az.
16 Jul -1.9 02:28:20 10° SSE 02:30:01 13° SE 02:31:41 10° E visible
16 Jul -3.2 04:03:02 10° WSW 04:06:20 57° NW 04:09:37 10° NE visible
16 Jul -0.4 05:42:03 10° NW 05:43:36 13° NNW 05:45:09 10° N visible
16 Jul -0.5 08:57:24 10° NNW 08:59:26 15° NNE 09:01:28 10° ENE visible
16 Jul -3.8 10:33:12 10° NW 10:36:32 87° NE 10:39:50 10° SE visible
17 Jul -3.9 03:13:44 10° SW 03:17:04 76° SE 03:20:24 10° NE visible
17 Jul -0.7 04:51:49 10° WNW 04:54:05 17° NNW 04:56:21 10° NNE visible
17 Jul -0.2 08:08:40 10° N 08:09:54 12° NNE 08:11:08 10° NE visible
17 Jul -2.7 09:44:01 10° NW 09:47:14 46° NE 09:50:26 10° ESE visible
18 Jul -3.3 02:24:44 10° SSW 02:27:51 38° SE 02:31:00 10° ENE visible
18 Jul -1.3 04:01:50 10° W 04:04:36 24° NNW 04:07:24 10° NNE visible
18 Jul -1.6 08:54:56 10° NNW 08:57:52 28° NNE 09:00:47 10° E visible
18 Jul -2.9 10:31:36 10° WNW 10:34:31 29° SW 10:37:25 10° SSE visible
19 Jul -2.2 03:12:04 10° WSW 03:15:13 37° NNW 03:18:21 10° NE visible
19 Jul -0.1 04:51:53 10° NNW 04:52:39 11° NNW 04:53:25 10° N visible
19 Jul -1.0 08:05:56 10° NNW 08:08:25 19° NNE 08:10:53 10° ENE visible
19 Jul -3.8 09:42:04 10° WNW 09:45:20 57° SW 09:48:33 10° SE visible
20 Jul -3.3 02:22:32 10° WSW 02:25:52 67° NW 02:29:11 10° NE visible
20 Jul -0.4 04:01:17 10° NW 04:03:03 14° NNW 04:04:50 10° NNE visible
20 Jul -0.5 07:17:02 10° NNW 07:18:36 14° NNE 07:18:36 14° NNE visible
20 Jul-0.609:00:01SE09:00:01SE08:51:10NWvisible
21 Jul -0.8 03:11:06 10° WNW 03:13:31 18° NNW 03:15:57 10° NNE visible
21 Jul -0.2 06:28:22 10° N 06:29:00 11° N 06:29:00 11° N visible
22 Jul -1.4 02:21:07 10° W 02:24:02 27° NNW 02:26:56 10° NNE visible
23 Jul -0.4 03:10:50 10° NW 03:11:58 11° NNW 03:13:06 10° N visible
24 Jul -0.7 02:20:22 10° WNW 02:22:20 15° NNW 02:24:20 10° NNE visible
24 Jul -0.3 05:36:30 10° N 05:37:08 12° N 05:37:08 12° N visible
25 Jul -0.5 04:47:59 10° N 04:48:31 10° NNE 04:49:03 10° NNE visible
